TimeCDT,TemperatureF,Dew PointF,Humidity,Sea Level PressureIn,VisibilityMPH,Wind Direction,Wind SpeedMPH,Gust SpeedMPH,PrecipitationIn,Events,Conditions,WindDirDegrees,DateUTC
12:15 AM,35.6,35.6,100,30.23,6.0,NNW,18.4,25.3,N/A,Rain,Light Rain,330,2012-10-04 05:15:00
12:35 AM,35.6,35.6,100,30.23,7.0,NNW,17.3,25.3,0.02,Rain,Light Rain,330,2012-10-04 05:35:00
12:55 AM,35.6,35.6,100,30.23,7.0,NNW,20.7,25.3,0.02,Rain,Light Rain,330,2012-10-04 05:55:00
1:15 AM,35.6,35.6,100,30.23,8.0,NW,16.1,23.0,N/A,Rain,Light Rain,320,2012-10-04 06:15:00
1:35 AM,35.6,35.6,100,30.23,10.0,NNW,19.6,26.5,N/A,Rain,Light Rain,330,2012-10-04 06:35:00
1:55 AM,35.6,35.6,100,30.24,8.0,NW,18.4,26.5,0.01,Rain,Light Rain,320,2012-10-04 06:55:00
2:15 AM,35.6,35.6,100,30.24,10.0,NNW,19.6,25.3,N/A,Rain,Light Rain,330,2012-10-04 07:15:00
2:35 AM,35.6,35.6,100,30.24,10.0,NNW,18.4,25.3,N/A,Rain,Light Rain,330,2012-10-04 07:35:00
2:55 AM,35.6,35.6,100,30.25,10.0,NNW,17.3,24.2,N/A,Rain,Light Rain,330,2012-10-04 07:55:00
3:15 AM,35.6,35.6,100,30.25,10.0,NNW,17.3,25.3,N/A,Rain,Light Rain,330,2012-10-04 08:15:00
3:35 AM,35.6,35.6,100,30.25,10.0,NNW,18.4,24.2,N/A,Rain,Light Rain,330,2012-10-04 08:35:00
3:55 AM,35.6,35.6,100,30.25,10.0,NNW,18.4,26.5,N/A,Rain,Light Rain,330,2012-10-04 08:55:00
4:15 AM,35.6,35.6,100,30.25,10.0,NNW,19.6,25.3,N/A,Rain,Light Rain,330,2012-10-04 09:15:00
4:35 AM,35.6,35.6,100,30.26,10.0,NNW,20.7,-,N/A,Rain,Light Rain,330,2012-10-04 09:35:00
4:55 AM,35.6,35.6,100,30.26,10.0,NNW,18.4,21.9,N/A,,Mostly Cloudy,330,2012-10-04 09:55:00
5:15 AM,35.6,35.6,100,30.26,10.0,NNW,16.1,24.2,N/A,,Overcast,340,2012-10-04 10:15:00
5:35 AM,35.6,35.6,100,30.26,10.0,NNW,16.1,24.2,N/A,,Overcast,340,2012-10-04 10:35:00
5:55 AM,35.6,35.6,100,30.26,10.0,NNW,18.4,-,N/A,,Overcast,340,2012-10-04 10:55:00
6:15 AM,35.6,35.6,100,30.26,10.0,NNW,18.4,23.0,N/A,,Overcast,340,2012-10-04 11:15:00
6:35 AM,35.6,35.6,100,30.27,10.0,NNW,17.3,23.0,N/A,,Overcast,330,2012-10-04 11:35:00
6:55 AM,35.6,35.6,100,30.28,10.0,NNW,13.8,20.7,N/A,,Overcast,330,2012-10-04 11:55:00
7:15 AM,35.6,35.6,100,30.28,10.0,NNW,16.1,21.9,N/A,,Overcast,330,2012-10-04 12:15:00
7:35 AM,35.6,35.6,100,30.28,10.0,NNW,15.0,20.7,N/A,,Overcast,330,2012-10-04 12:35:00
7:55 AM,35.6,35.6,100,30.28,10.0,NW,20.7,26.5,N/A,,Overcast,320,2012-10-04 12:55:00
8:15 AM,35.6,33.8,93,30.29,10.0,NW,18.4,24.2,N/A,,Overcast,320,2012-10-04 13:15:00
8:35 AM,35.6,33.8,93,30.30,10.0,NNW,18.4,27.6,N/A,,Overcast,330,2012-10-04 13:35:00
8:55 AM,35.6,32.0,87,30.30,10.0,NNW,21.9,33.4,N/A,,Overcast,330,2012-10-04 13:55:00
9:15 AM,35.6,32.0,87,30.30,10.0,NNW,21.9,28.8,N/A,,Overcast,340,2012-10-04 14:15:00
9:35 AM,35.6,32.0,87,30.30,10.0,NNW,21.9,31.1,N/A,,Overcast,330,2012-10-04 14:35:00
9:55 AM,35.6,32.0,87,30.31,10.0,NNW,18.4,26.5,N/A,,Overcast,340,2012-10-04 14:55:00
10:15 AM,35.6,32.0,87,30.31,10.0,NNW,17.3,27.6,N/A,,Overcast,340,2012-10-04 15:15:00
10:35 AM,35.6,32.0,87,30.31,10.0,NNW,19.6,23.0,N/A,,Overcast,340,2012-10-04 15:35:00
10:55 AM,35.6,32.0,87,30.32,10.0,NNW,19.6,26.5,N/A,,Overcast,340,2012-10-04 15:55:00
11:35 AM,37.4,32.0,81,30.32,10.0,NNW,20.7,29.9,N/A,,Overcast,330,2012-10-04 16:35:00
11:55 AM,37.4,32.0,81,30.32,10.0,NNW,21.9,27.6,N/A,,Overcast,330,2012-10-04 16:55:00
12:15 PM,39.2,32.0,75,30.31,10.0,NNW,21.9,28.8,N/A,,Overcast,340,2012-10-04 17:15:00
12:35 PM,39.2,32.0,75,30.32,10.0,NNW,19.6,26.5,N/A,,Overcast,330,2012-10-04 17:35:00
12:55 PM,39.2,32.0,75,30.32,10.0,NNW,19.6,24.2,N/A,,Overcast,340,2012-10-04 17:55:00
1:15 PM,39.2,32.0,75,30.32,10.0,NNW,20.7,26.5,N/A,,Overcast,330,2012-10-04 18:15:00
1:35 PM,39.2,32.0,75,30.32,10.0,NNW,17.3,24.2,N/A,,Overcast,330,2012-10-04 18:35:00
1:55 PM,39.2,32.0,75,30.31,10.0,NW,18.4,26.5,N/A,,Overcast,320,2012-10-04 18:55:00
2:15 PM,41.0,30.2,65,30.31,10.0,NNW,19.6,-,N/A,,Overcast,330,2012-10-04 19:15:00
2:35 PM,41.0,30.2,65,30.30,10.0,NW,19.6,26.5,N/A,,Overcast,320,2012-10-04 19:35:00
2:55 PM,39.2,28.4,65,30.31,10.0,NW,17.3,25.3,N/A,,Overcast,320,2012-10-04 19:55:00
3:15 PM,41.0,30.2,65,30.30,10.0,NW,18.4,25.3,N/A,,Overcast,310,2012-10-04 20:15:00
3:35 PM,39.2,28.4,65,30.31,10.0,NW,24.2,29.9,N/A,,Overcast,320,2012-10-04 20:35:00
3:55 PM,39.2,28.4,65,30.31,10.0,NW,18.4,24.2,N/A,,Overcast,310,2012-10-04 20:55:00
4:15 PM,39.2,28.4,65,30.31,10.0,NNW,18.4,24.2,N/A,,Overcast,330,2012-10-04 21:15:00
4:35 PM,39.2,28.4,65,30.31,10.0,NW,18.4,26.5,N/A,,Overcast,320,2012-10-04 21:35:00
4:55 PM,39.2,28.4,65,30.31,10.0,NNW,18.4,24.2,N/A,,Overcast,330,2012-10-04 21:55:00
5:15 PM,39.2,28.4,65,30.32,10.0,NW,18.4,25.3,N/A,,Overcast,320,2012-10-04 22:15:00
5:35 PM,39.2,26.6,61,30.32,10.0,NNW,16.1,23.0,N/A,,Overcast,330,2012-10-04 22:35:00
5:55 PM,39.2,28.4,65,30.32,10.0,NW,16.1,23.0,N/A,,Overcast,320,2012-10-04 22:55:00
6:15 PM,39.2,28.4,65,30.32,10.0,NNW,16.1,21.9,N/A,,Overcast,330,2012-10-04 23:15:00
6:35 PM,37.4,28.4,70,30.33,10.0,NNW,15.0,20.7,N/A,,Overcast,330,2012-10-04 23:35:00
6:55 PM,37.4,28.4,70,30.33,10.0,NW,13.8,21.9,N/A,,Overcast,320,2012-10-04 23:55:00
7:15 PM,37.4,26.6,65,30.33,10.0,NW,13.8,20.7,N/A,,Overcast,320,2012-10-05 00:15:00
7:35 PM,35.6,28.4,75,30.33,10.0,NW,10.4,-,N/A,,Overcast,320,2012-10-05 00:35:00
7:55 PM,35.6,28.4,75,30.33,10.0,NW,11.5,-,N/A,,Overcast,310,2012-10-05 00:55:00
8:15 PM,35.6,28.4,75,30.34,10.0,NW,10.4,-,N/A,,Overcast,310,2012-10-05 01:15:00
8:35 PM,35.6,28.4,75,30.34,10.0,WNW,10.4,-,N/A,,Overcast,300,2012-10-05 01:35:00
8:55 PM,35.6,28.4,75,30.34,10.0,WNW,9.2,-,N/A,,Overcast,300,2012-10-05 01:55:00
9:15 PM,32.0,28.4,87,30.34,10.0,WNW,11.5,-,N/A,,Mostly Cloudy,300,2012-10-05 02:15:00
9:35 PM,33.8,28.4,81,30.33,10.0,WNW,11.5,-,N/A,,Scattered Clouds,300,2012-10-05 02:35:00
9:55 PM,32.0,28.4,87,30.33,10.0,WNW,11.5,-,N/A,,Partly Cloudy,300,2012-10-05 02:55:00
10:15 PM,32.0,28.4,87,30.33,10.0,WNW,11.5,-,N/A,,Mostly Cloudy,300,2012-10-05 03:15:00
10:35 PM,30.2,28.4,93,30.33,10.0,WNW,9.2,-,N/A,,Overcast,300,2012-10-05 03:35:00
10:55 PM,32.0,28.4,87,30.33,10.0,NW,9.2,-,N/A,,Mostly Cloudy,310,2012-10-05 03:55:00
11:15 PM,32.0,28.4,87,30.33,10.0,WNW,10.4,-,N/A,,Mostly Cloudy,300,2012-10-05 04:15:00
11:35 PM,32.0,26.6,80,30.33,10.0,NW,10.4,-,N/A,,Partly Cloudy,310,2012-10-05 04:35:00
11:55 PM,32.0,26.6,80,30.32,10.0,WNW,11.5,-,N/A,,Clear,300,2012-10-05 04:55:00